Location: Newark
(33.6439°N, 114.9881°W)
Time: 15:58:23
(UTC+00:00)

A-11 Canister half - Pass Details

Date: 28 August 2019
Orbit: 1527 x 1682 km, 47.3° (Epoch: 17 September)

Event Time Altitude Azimuth Distance (km) Brightness Sun altitude
Rises 03:09:48 0° 289° (WNW) 4,931 13.8 -12.4°
Reaches altitude 10° 03:14:54 10° 269° (W) 3,927 12.3 -13.3°
Maximum altitude 03:19:52 15° 238° (WSW) 3,518 11.4 -14.3°
Drops below altitude 10° 03:24:48 10° 208° (SSW) 3,875 11.2 -15.3°
Sets 03:29:50 0° 186° (S) 4,827 11.4 -16.2°
